Gary, IN

6:55 PM CST on February 18, 2018 (GMT -0600)
Gary / Chicago

Weather History for KGYY - January, 2014

Change the Weather History Date:

Saturday, January 18, 2014

  Actual Average Record
Temperature  
Mean Temperature 18 °F -  
Max Temperature 23 °F 30 °F 62 °F (1952)
Min Temperature 12 °F 12 °F -7 °F (1970)
Degree Days  
Heating Degree Days 48    
Moisture  
Dew Point 12 °F    
Average Humidity 79    
Maximum Humidity 89    
Minimum Humidity 63    
Precipitation  
Precipitation 0.00 in - - ()
Sea Level Pressure  
Sea Level Pressure 29.87 in    
Wind  
Wind Speed 6 mph (SSW)    
Max Wind Speed 13 mph    
Max Gust Speed -    
Visibility 7 miles    
Events Snow    
Averages and records for this station are not official NWS values.
T = Trace of Precipitation, MM = Missing Value Source: NWS Daily Summary

Daily Weather History Graph

Daily Weather History Graph

Search for Another Location

Airport or City:

Trip Planner

Search our weather history database for the weather conditions in past years. The results will help you decide how hot, cold, wet, or windy it might be!

Date:

Astronomy

Jan. 18, 2014 Rise Set
Actual Time 7:12 AM CST 4:48 PM CST
Civil Twilight 6:42 AM CST 5:18 PM CST
Nautical Twilight 6:08 AM CST 5:52 PM CST
Astronomical Twilight 5:34 AM CST 6:25 PM CST
Moon 7:32 PM CST (1/18) 8:09 AM CST (1/18)
Length of Visible Light 10h 36m
Length of Day
9h 35m
Waning Gibbous, 94% of the Moon is Illuminated
Jan 18
Waning Gibbous
Jan 23
Last Quarter
Jan 30
New
Feb 6
First Quarter
Feb 14
Full

Hourly Weather History & Observations

Time (CST) Temp. Windchill Dew Point Humidity Pressure Visibility Wind Dir Wind Speed Gust Speed Precip Events Conditions
12:15 AM 16.7 °F 7.2 °F 9.9 °F 74% 29.95 in 10.0 mi WSW 6.9 mph - N/A Snow Light Snow
12:35 AM 17.1 °F 7.6 °F 10.0 °F 74% 29.95 in 10.0 mi WSW 6.9 mph - N/A Snow Light Snow
12:55 AM 16.5 °F 4.3 °F 9.1 °F 73% 29.95 in 10.0 mi WSW 10.4 mph - N/A Snow Light Snow
1:15 AM 16.5 °F 8.1 °F 9.0 °F 72% 29.94 in 10.0 mi WSW 5.8 mph - N/A Snow Light Snow
1:35 AM 16.5 °F 9.4 °F 9.0 °F 72% 29.95 in 10.0 mi SW 4.6 mph - N/A   Overcast
1:55 AM 16.3 °F 7.8 °F 8.8 °F 72% 29.95 in 10.0 mi SSW 5.8 mph - N/A   Overcast
2:15 AM 15.8 °F 10.2 °F 8.6 °F 73% 29.93 in 10.0 mi SW 3.5 mph - N/A   Mostly Cloudy
2:35 AM 15.4 °F - 8.6 °F 74% 29.92 in 10.0 mi Calm Calm - N/A   Scattered Clouds
2:55 AM 14.7 °F 9.0 °F 8.6 °F 77% 29.93 in 10.0 mi SSW 3.5 mph - N/A   Clear
3:15 AM 15.3 °F 6.6 °F 9.1 °F 77% 29.96 in 10.0 mi SW 5.8 mph - N/A   Mostly Cloudy
3:35 AM 15.6 °F 5.9 °F 8.8 °F 74% 29.95 in 10.0 mi SW 6.9 mph - N/A   Overcast
4:45 AM 14.0 °F 3.9 °F 6.8 °F 73% 29.93 in 10.0 mi SSW 6.9 mph - N/A   Overcast
5:45 AM 14.0 °F 3.9 °F 6.8 °F 73% 29.92 in 10.0 mi South 6.9 mph - N/A   Scattered Clouds
6:45 AM 12.2 °F 0.7 °F 6.8 °F 79% 29.90 in 10.0 mi South 8.1 mph - N/A   Scattered Clouds
7:45 AM 14.0 °F 5.1 °F 6.8 °F 73% 29.88 in 10.0 mi South 5.8 mph - N/A   Mostly Cloudy
8:45 AM 15.8 °F 8.6 °F 8.6 °F 73% 29.87 in 10.0 mi South 4.6 mph - N/A   Mostly Cloudy
9:45 AM 17.6 °F 4.3 °F 10.4 °F 73% 29.87 in 10.0 mi South 12.7 mph - N/A   Overcast
10:45 AM 19.4 °F 9.5 °F 10.4 °F 68% 29.84 in 10.0 mi SSE 8.1 mph - N/A   Overcast
11:45 AM 21.2 °F 10.9 °F 10.4 °F 63% 29.81 in 10.0 mi South 9.2 mph - N/A   Overcast
11:55 AM 19.4 °F 9.5 °F 12.2 °F 74% 29.81 in 2.0 mi South 8.1 mph - N/A Snow Light Snow
12:45 PM 19.4 °F 9.5 °F 12.2 °F 74% 29.81 in 2.0 mi South 8.1 mph - N/A Snow Light Snow
1:45 PM 19.4 °F 7.9 °F 15.8 °F 86% 29.77 in 1.0 mi SSE 10.4 mph - N/A Snow Light Snow
2:45 PM 21.2 °F 10.9 °F 15.8 °F 80% 29.76 in 1.0 mi ESE 9.2 mph - N/A Snow Light Snow
3:45 PM 21.2 °F 12.6 °F 15.8 °F 80% 29.79 in 1.0 mi ESE 6.9 mph - N/A Snow Light Snow
4:45 PM 21.2 °F 13.6 °F 15.8 °F 80% 29.81 in 1.0 mi ESE 5.8 mph - N/A Snow Light Snow
5:45 PM 21.2 °F 13.6 °F 17.6 °F 86% 29.83 in 1.5 mi East 5.8 mph - N/A Snow Light Snow
6:45 PM 21.2 °F 13.6 °F 17.6 °F 86% 29.84 in 2.0 mi ENE 5.8 mph - N/A Snow Light Snow
7:45 PM 21.2 °F 14.9 °F 15.8 °F 80% 29.83 in 3.0 mi East 4.6 mph - N/A Snow Light Snow
8:15 PM 19.0 °F 11.1 °F 14.9 °F 84% 29.82 in 10.0 mi East 5.8 mph - N/A   Clear
8:35 PM 17.1 °F - 13.3 °F 85% 29.82 in 7.0 mi Calm Calm - N/A   Clear
8:45 PM 14.0 °F - 10.4 °F 86% 29.83 in 5.0 mi Calm Calm - N/A   Scattered Clouds
8:55 PM 13.6 °F - 10.4 °F 87% 29.83 in 5.0 mi Calm Calm - N/A   Clear
9:15 PM 12.0 °F - 8.4 °F 85% 29.83 in 4.0 mi Calm Calm - N/A   Clear
9:40 PM 12.7 °F - 9.3 °F 86% 29.84 in 4.0 mi Calm Calm - N/A   Scattered Clouds
9:55 PM 12.9 °F - 9.5 °F 86% 29.85 in 7.0 mi Calm Calm - N/A   Mostly Cloudy
10:15 PM 15.8 °F 10.2 °F 12.7 °F 88% 29.85 in 7.0 mi West 3.5 mph - N/A   Overcast
10:35 PM 19.2 °F - 16.5 °F 89% 29.85 in 7.0 mi Calm Calm - N/A   Overcast
10:55 PM 21.0 °F 11.4 °F 18.3 °F 89% 29.86 in 7.0 mi West 8.1 mph - N/A   Overcast
11:15 PM 22.6 °F 13.4 °F 19.8 °F 89% 29.85 in 10.0 mi West 8.1 mph - N/A   Overcast
11:35 PM 23.0 °F 14.7 °F 18.7 °F 84% 29.84 in 10.0 mi West 6.9 mph - N/A   Overcast
11:55 PM 22.6 °F 13.4 °F 18.1 °F 83% 29.84 in 7.0 mi West 8.1 mph - N/A   Overcast